Regional Weather Roundup
Issued by NWS

Home | Current Version | Previous Version | Graphics & Text | Print | Product List | Glossary On
Versions: 1 2 3 4 5 6 7 8 9 10 11 12 13 14 15 16 17 18 19 20 21 22 23 24 25 26 27 28 29 30 31 32 33 34 35 36 37 38 39 40 41 42 43 44 45 46 47 48 49 50
000
ASUS43 KMKX 270711
RWRWI

WISCONSIN REGIONAL WEATHER ROUNDUP
NATIONAL WEATHER SERVICE MILWAUKEE/SULLIVAN WI
200 AM CDT SUN MAY 27 2018

NOTE: "FAIR" INDICATES FEW OR NO CLOUDS BELOW 12,000 FEET WITH NO
SIGNIFICANT WEATHER AND/OR OBSTRUCTIONS TO VISIBILITY.

WIZ001-002-006>008-014>016-023>028-270800-
NORTHWEST WISCONSIN

CITY           SKY/WX    TMP DP  RH WIND       PRES   REMARKS
SUPERIOR ARPT  FOG       50  50 100 CALM      29.79S VSB 1/2
ASHLAND        FAIR      51  51 100 N3        29.78S FOG
HAYWARD        FAIR      58  56  93 CALM      29.79R
SIREN          FAIR      56  53  88 CALM      29.78S
CUMBERLAND     FAIR      59  55  88 CALM      29.79S
RICE LAKE      FAIR      61  59  92 CALM      29.80R
CHETEK         FAIR      60  59  97 CALM      29.78S
LADYSMITH      FAIR      60  56  89 CALM      29.81R
EAU CLAIRE     FAIR      66  61  84 W3        29.76S
MENOMONIE      FAIR      65  62  91 CALM      29.78R
NEW RICHMOND   FAIR      64  62  93 CALM      29.78S
OSCEOLA        FAIR      60  56  88 CALM      29.80S
$$

WIZ003>005-009-010-017-018-270800-
NORTH CENTRAL WISCONSIN

CITY           SKY/WX    TMP DP  RH WIND       PRES   REMARKS
MANITOWISH WTR FOG       55  55 100 CALM      29.79S VSB 1/2
ARBOR VITAE    FAIR      61  59  94 CALM      29.79S
WOODRUFF       FAIR      61  59  94 CALM      29.79S
RHINELANDER    FOG       58  57  97 W3        29.80S VSB 1/4
EAGLE RIVER    FOG       57  57 100 CALM      29.79S VSB 1/2
LAND O LAKES     N/A     56  56  99 CALM      29.81S FOG
PHILLIPS       FAIR      55  55 100 CALM      29.79S
TOMAHAWK       FAIR      55  54  94 CALM      29.80R
MEDFORD        FAIR      62  58  89 CALM      29.79S
MERRILL        FAIR      62  60  93 CALM      29.79S
$$

WIZ029-030-035-036-043>047-270800-
CENTRAL WISCONSIN

CITY           SKY/WX    TMP DP  RH WIND       PRES   REMARKS
WAUSAU         NOT AVBL
MOSINEE        FAIR      68  61  77 SW6       29.79S
MARSHFIELD     FAIR      71  63  75 W6        29.78S
STEVENS POINT  MOCLDY    67  59  75 CALM      29.79R
WAUPACA        FAIR      69  60  74 CALM      29.77S
WAUTOMA        FAIR      64  62  93 CALM      29.79R
WISC RAPIDS    FAIR      67  61  81 CALM      29.79R
CAMP DOUGLAS   FAIR      66  63  89 CALM      29.78S
$$

WIZ011>013-019>022-031-037>040-048>050-270800-
NORTHEAST WISCONSIN

CITY           SKY/WX    TMP DP  RH WIND       PRES   REMARKS
ANTIGO         FAIR      60  60  97 CALM      29.80S
SHAWANO        FAIR      63  59  87 CALM      29.76S
OCONTO         FAIR      58  55  91 CALM      29.75F
STURGEON BAY   FAIR      65  57  75 S13G21    29.76F
GREEN BAY      FAIR      64  59  83 S5        29.77R
MANITOWOC      NOT AVBL
APPLETON       FAIR      70  57  64 CALM      29.77S
CLINTONVILLE   FOG       64  63  96 CALM      29.76F VSB 1/2
OSHKOSH        FAIR      73  62  68 SW5       29.77R
$$

WIZ032>034-041-042-053>061-270800-
SOUTHWEST WISCONSIN

CITY           SKY/WX    TMP DP  RH WIND       PRES   REMARKS
LA CROSSE      FAIR      71  67  87 SE5       29.76S
SPARTA         FAIR      61  60  97 CALM      29.79S
VIROQUA        FAIR      74  64  68 S6        29.81S
BOSCOBEL       FAIR      66  64  93 CALM      29.79S FOG
PRAIRIE DU CHI FAIR      69  66  90 CALM      29.78S
PLATTEVILLE    FAIR      72  66  82 SE5       29.81F
$$

WIZ056-057-062-063-064-067-068-270800-
SOUTH CENTRAL WISCONSIN

CITY           SKY/WX    TMP DP  RH WIND       PRES   REMARKS
REEDSBURG      FAIR      67  67 100 CALM      29.79S
BARABOO/DELLS  FAIR      70  62  75 CALM      29.80R
LONE ROCK      FAIR      66  66 100 CALM      29.79S
MINERAL POINT  FAIR      72  64  78 SE5       29.82S
MADISON        FAIR      69  64  84 S5        29.79S
MIDDLETON      FAIR      68  64  86 CALM      29.81S
WATERTOWN      FAIR      66  64  93 CALM      29.80R
MONROE         FAIR      72  61  68 SW8       29.82S
JANESVILLE     FAIR      68  64  88 CALM      29.80F
$$

WIZ051-052-058>065-066-070>072-270800-
SOUTHEAST WISCONSIN

CITY           SKY/WX    TMP DP  RH WIND       PRES   REMARKS
MILWAUKEE      FAIR      69  59  70 S7        29.80S
WAUKESHA       FAIR      68  61  77 CALM      29.81S
MILWAUKEE/TIMM FAIR      70  55  60 S3        29.81S
RACINE         FAIR      70  57  63 S8        29.82F
BURLINGTON     FAIR      64  62  96 CALM      29.81S
KENOSHA        FAIR      66  58  75 E3        29.81S
FOND DU LAC    FAIR      73  61  65 SW5       29.78R
SHEBOYGAN      FAIR      58  54  86 S3        29.79F
WEST BEND      FAIR      64  63  94 CALM      29.80S
JUNEAU         FAIR      67  61  81 CALM      29.80S
$$

LSZ147-162-270800-
LAKE SUPERIOR

STATION/POSITION TIME  TEMP    WIND        PRES    WAVE
                       AIR SEA DIR/SP/G            HT/PER
                 (UTC) (F)     (DEG/KT/KT) (MB)    (FT/S)
W MID LAKE BUOY  0650   38 36  300/  4/  4 1008.7R   1/ 3
DEVILS ISLAND    0700   48     240/  5/  5 1009.2R
SAXON HARBOR     0640   51      10/  3/  4 1008.1R
$$

LMZ867-665-643>646-270800-
LAKE MICHIGAN

STATION/POSITION TIME  TEMP    WIND        PRES    WAVE
                       AIR SEA DIR/SP/G            HT/PER
                 (UTC) (F)     (DEG/KT/KT) (MB)    (FT/S)
N MID LAKE BUOY  0650   46 38  110/  8/ 10 1008.7S   0
NORTHPORT PIER   0640   58      CALM  /  3 1007.8R
KEWAUNEE LAKESHO 0642          200/ 10/ 14 1007.6F
SHEBOYGAN LAKESH 0700   63     200/  7/  8 1008.6F
PORT WASHINGTON  0630   59     210/  5/  7 1009.8F
ATWATER BUOY     0607   55 50  200/  6/  8 1009.4    1
MILWAUKEE LAKESH 0650   57     210/  3/  3   N/A
S MID LAKE BUOY  0650   54 40  160/  6/  8 1009.7F   0
KENOSHA   LAKESH 0700   65                 1009.5
$$

TC  - TEMPERATURE IN CELSIUS
VSB - VISIBILITY IN STATUTE MILES
WCI - WIND CHILL INDEX
HX  - HEAT INDEX





USA.gov is the U.S. government's official web portal to all federal, state and local government web resources and services.